STARLINK AC

Last updated on June 19, 2020, 12:02 a.m. UTC

1 45756U 20038AC  20170.75001157  .00114266  11274-4  14220-3 0  9997
2 45756  52.9997 271.8097 0111423  69.6647 146.4122 15.96107322  2136

Satellite is not in orbit.